Meteo Giornale » Osservazioni meteo Stati Uniti (USA) » Monroe
ore: 10:55 - Osservazioni Meteo Monroe
Lat. 42° 36' N Lon. 89° 35' W Alt. 331 metri s.l.m.
29 °C
Sereno
Temp. 24 Ore
22 °C
29 °C
Sud-Ovest
22.2 Km/h
Dew point 20 °C
Umidità 58 %
Visibilità 10 Km
Il sole sorge alle ore 06:22
Il sole tramonta alle ore 19:34
| Data e Ora | Cielo e Fenomeni | T °C | DP °C | Um. % | Pres. hPa | Vis. km | Vento km/h | |
|---|---|---|---|---|---|---|---|---|
| Oggi h: 10:55 | Sereno | 29 | 20 | 58 | 1012 | 10 | SO 22.2 | |
| Oggi h: 10:35 | Sereno | 28 | 21 | 65 | 1012 | 10 | SO 25.9 | |
| Oggi h: 10:15 | Sereno | 28 | 21 | 65 | 1012 | 10 | SO 22.2 | |
| Oggi h: 09:55 | Sereno | 27 | 20 | 65 | 1012 | 10 | SO 22.2 | |
| Oggi h: 09:35 | Sereno | 26 | 20 | 69 | 1012 | 10 | SO 18.5 | |
| Oggi h: 09:15 | Sereno | 26 | 20 | 69 | 1012 | 10 | SO 25.9 | |
| Oggi h: 08:55 | Sereno | 26 | 20 | 69 | 1012 | 10 | SO 22.2 | |
| Oggi h: 08:35 | Sereno | 25 | 20 | 73 | 1012 | 10 | SO 22.2 | |
| Oggi h: 08:15 | Sereno | 24 | 20 | 78 | 1012 | 10 | SO 18.5 | |
| Oggi h: 07:55 | Sereno | 24 | 19 | 73 | 1012 | 10 | S/SO 18.5 | |
| Oggi h: 07:35 | Sereno | 23 | 19 | 78 | 1012 | 10 | S/SO 22.2 | |
| Oggi h: 07:15 | Sereno | 23 | 19 | 78 | 1011 | 10 | S/SO 25.9 | |
| Oggi h: 06:55 | Sereno | 23 | 19 | 78 | 1011 | 10 | S/SO 25.9 | |
| Oggi h: 06:35 | Sereno | 23 | 19 | 78 | 1011 | 10 | S/SO 24 | |
| Oggi h: 06:15 | Sereno | 23 | 19 | 78 | 1011 | 10 | S/SO 22.2 | |
| Oggi h: 05:55 | Temporale nelle vicinanze | 23 | 19 | 78 | 1011 | 10 | S/SO 24 | |
| Oggi h: 05:35 | Sereno | 23 | 19 | 78 | 1011 | 10 | S/SO 24 | |
| Oggi h: 05:15 | Sereno | 23 | 19 | 78 | 1011 | 10 | S/SO 22.2 | |
| Oggi h: 04:55 | Temporale nelle vicinanze | 24 | 19 | 73 | 1012 | 10 | S/SO 25.9 | |
| Oggi h: 04:35 | Sereno | 24 | 19 | 73 | 1012 | 10 | S/SO 25.9 | |
| Oggi h: 04:15 | Sereno | 24 | 19 | 73 | 1012 | 10 | S/SO 24 | |
| Oggi h: 03:55 | Sereno | 24 | 19 | 73 | 1012 | 10 | S/SO 29.6 | |
| Oggi h: 03:35 | Nuvoloso | 24 | 19 | 73 | 1012 | 10 | S/SO 25.9 | |
| Oggi h: 03:10 | Nuvoloso | 24 | 20 | 78 | 1012 | 10 | S/SO 24 | |
| Oggi h: 02:55 | Nuvoloso | 24 | 20 | 78 | 1012 | 10 | S/SO 25.9 | |
| Oggi h: 02:35 | Molto Nuvoloso | 24 | 20 | 78 | 1012 | 10 | S/SO 25.9 | |
| Oggi h: 02:15 | Nuvoloso | 24 | 20 | 78 | 1012 | 10 | S/SO 24 | |
| Oggi h: 01:55 | Sereno | 24 | 20 | 78 | 1013 | 10 | S 24 | |
| Oggi h: 01:35 | Sereno | 24 | 20 | 78 | 1013 | 10 | S 22.2 | |
| Oggi h: 01:15 | Sereno | 24 | 21 | 83 | 1013 | 10 | S 20.3 | |
| Oggi h: 00:55 | Sereno | 24 | 21 | 83 | 1014 | 10 | S 18.5 | |
| Oggi h: 00:35 | Sereno | 24 | 21 | 83 | 1014 | 10 | S 20.3 | |
| Oggi h: 00:15 | Sereno | 23 | 21 | 88 | 1014 | 10 | S 18.5 | |
| Ieri h: 23:55 | Sereno | 24 | 21 | 83 | 1014 | 10 | S 18.5 | |
| Ieri h: 23:35 | Sereno | 24 | 21 | 83 | 1014 | 10 | S 18.5 | |
| Ieri h: 23:15 | Sereno | 24 | 21 | 83 | 1014 | 10 | S 18.5 | |
| Ieri h: 22:55 | Pioggia | 25 | 20 | 73 | 1014 | 10 | S 22.2 | |
| Ieri h: 22:35 | Sereno | 24 | 20 | 78 | 1013 | 10 | S 22.2 | |
| Ieri h: 22:15 | Sereno | 23 | 21 | 88 | 1014 | 10 | S 20.3 | |
| Ieri h: 21:55 | Sereno | 23 | 21 | 88 | 1014 | 10 | S 22.2 | |
| Ieri h: 21:35 | Sereno | 23 | 21 | 88 | 1014 | 10 | S/SO 20.3 | |
| Ieri h: 21:15 | Nuvoloso | 23 | 21 | 88 | 1014 | 10 | S/SO 24 | |
| Ieri h: 20:55 | Molto Nuvoloso | 23 | 22 | 94 | 1014 | 10 | S 22.2 | |
| Ieri h: 20:35 | Temporale nelle vicinanze | 22 | 22 | 100 | 1014 | 10 | S 20.3 | |
| Ieri h: 20:15 | Temporale nelle vicinanze | 22 | 22 | 100 | 1014 | 10 | S/SE 14.8 | |
| Ieri h: 19:55 | Pioggia | 22 | 22 | 100 | 1014 | 10 | S/SO 24 | |
| Ieri h: 19:35 | Pioggia | 22 | 22 | 100 | 1014 | 10 | SO 14.8 | |
| Ieri h: 19:15 | Temporale | 22 | 22 | 100 | 1014 | 10 | SO 25.9 | |
| Ieri h: 18:55 | Pioggia | 22 | 22 | 100 | 1014 | 10 | S/SO 13 | |
| Ieri h: 18:35 | Pioggia | 23 | 22 | 94 | 1014 | 10 | S 18.5 | |
| Ieri h: 18:15 | Sereno | 23 | 22 | 94 | 1014 | 10 | S/SO 20.3 | |
| Ieri h: 17:55 | Sereno | 23 | 22 | 94 | 1014 | 10 | S/SO 18.5 | |
| Ieri h: 17:35 | Sereno | 23 | 22 | 94 | 1014 | 10 | S/SO 18.5 | |
| Ieri h: 17:15 | Sereno | 23 | 22 | 94 | 1013 | 10 | S 18.5 | |
| Ieri h: 16:55 | Pioviggine | 22 | 22 | 100 | 1013 | 10 | S 24 | |
| Ieri h: 16:35 | Pioviggine | 22 | 22 | 100 | 1013 | 10 | S/SO 22.2 | |
| Ieri h: 16:15 | Pioviggine | 23 | 22 | 94 | 1013 | 10 | S 22.2 | |
| Ieri h: 15:55 | Pioviggine | 23 | 22 | 94 | 1013 | 10 | S 22.2 | |
| Ieri h: 15:35 | Pioggia | 23 | 21 | 88 | 1014 | 10 | S/SO 16.7 | |
| Ieri h: 15:15 | Pioggia | 23 | 21 | 88 | 1013 | 10 | S 22.2 | |
| Ieri h: 14:55 | Pioviggine | 23 | 21 | 88 | 1014 | 10 | S/SO 18.5 | |
| Ieri h: 14:35 | Pioggia | 23 | 21 | 88 | 1014 | 10 | S/SO 16.7 | |
| Ieri h: 14:15 | Temporale | 24 | 21 | 83 | 1015 | 10 | SO 24 | |
| Ieri h: 13:55 | Pioggia | 24 | 20 | 78 | 1014 | 8 | O/SO 18.5 | |
| Ieri h: 13:35 | Molto Nuvoloso | 26 | 19 | 65 | 1014 | 10 | O/SO 24 | |
| Ieri h: 13:15 | Molto Nuvoloso | 26 | 19 | 65 | 1014 | 10 | O/SO 27.8 | |
| Ieri h: 12:55 | Temporale nelle vicinanze | 26 | 19 | 65 | 1014 | 10 | SO 27.8 | |
| Ieri h: 12:35 | Molto Nuvoloso | 26 | 19 | 65 | 1014 | 10 | SO 29.6 | |
| Ieri h: 12:15 | Molto Nuvoloso | 26 | 19 | 65 | 1014 | 10 | SO 33.3 | |
| Ieri h: 11:55 | Nuvoloso | 26 | 19 | 65 | 1013 | 10 | S/SO 29.6 | |
| Ieri h: 11:35 | Nuvoloso | 27 | 19 | 61 | 1013 | 10 | SO 38.8 | |



